WZZ411 LYBE-EDNY

Flight info

Callsign WZZ411
Flight time 1h 13m
Altitude 36000
Route TUVAR DCT BEDOX DCT ERKIR L608 KPT KPT1F
Aircraft A321/M-SDE1E2E3FGIJ1J4RWXY/LB1

Departure

Time 2026-04-24 09:28
Airport Belgrade Nikola Tesla Airport (LYBE)

Arrival

Time 2026-04-24 10:41
Airport Bodensee Airport Friedrichshafen (EDNY)
Time Latitude Longitude Altitude Speed Heading
2026-04-24 08:45 44.81809 20.29181 307 ft 0 kts 302°
2026-04-24 09:02 44.81809 20.29182 309 ft 0 kts 302°
2026-04-24 09:12 44.81808 20.29182 307 ft 0 kts 302°
2026-04-24 09:18 44.81808 20.29183 307 ft 0 kts 302°
2026-04-24 09:21 44.81804 20.29192 307 ft 3 kts 302°
2026-04-24 09:21 44.81794 20.29215 307 ft 3 kts 302°
2026-04-24 09:21 44.81784 20.29237 305 ft 3 kts 302°
2026-04-24 09:21 44.81775 20.29260 306 ft 3 kts 318°
2026-04-24 09:22 44.81774 20.29262 306 ft 0 kts 325°
2026-04-24 09:22 44.81810 20.29268 307 ft 10 kts 22°
2026-04-24 09:22 44.81869 20.29312 307 ft 9 kts 32°
2026-04-24 09:23 44.81912 20.29355 307 ft 6 kts 37°
2026-04-24 09:23 44.81952 20.29398 307 ft 10 kts 36°
2026-04-24 09:23 44.82019 20.29461 309 ft 13 kts 33°
2026-04-24 09:23 44.82094 20.29550 307 ft 16 kts 73°
2026-04-24 09:24 44.82059 20.29716 309 ft 20 kts 122°
2026-04-24 09:24 44.81975 20.29901 307 ft 25 kts 124°
2026-04-24 09:24 44.81878 20.30117 306 ft 25 kts 121°
2026-04-24 09:24 44.81782 20.30341 310 ft 29 kts 121°
2026-04-24 09:25 44.81678 20.30574 308 ft 28 kts 122°
2026-04-24 09:25 44.81574 20.30808 307 ft 29 kts 122°
2026-04-24 09:25 44.81469 20.31048 308 ft 29 kts 122°
2026-04-24 09:25 44.81363 20.31286 306 ft 28 kts 122°
2026-04-24 09:26 44.81259 20.31521 307 ft 27 kts 122°
2026-04-24 09:26 44.81158 20.31746 306 ft 27 kts 122°
2026-04-24 09:26 44.81058 20.31972 306 ft 25 kts 121°
2026-04-24 09:26 44.80989 20.32156 306 ft 18 kts 94°
2026-04-24 09:27 44.81072 20.32187 305 ft 20 kts 316°
2026-04-24 09:27 44.81286 20.31714 309 ft 93 kts 302°
2026-04-24 09:27 44.81745 20.30684 308 ft 151 kts 302°
2026-04-24 09:27 44.82338 20.29341 787 ft 161 kts 303°
2026-04-24 09:28 44.82886 20.27951 1444 ft 163 kts 290°
2026-04-24 09:28 44.82839 20.26302 1912 ft 185 kts 249°
2026-04-24 09:28 44.81984 20.24829 2212 ft 211 kts 225°
2026-04-24 09:28 44.80851 20.23342 2441 ft 233 kts 224°
2026-04-24 09:29 44.79662 20.21705 2871 ft 248 kts 234°
2026-04-24 09:29 44.78946 20.19472 3459 ft 255 kts 263°
2026-04-24 09:29 44.79096 20.16998 4232 ft 256 kts 292°
2026-04-24 09:29 44.79810 20.14685 5113 ft 258 kts 295°
2026-04-24 09:30 44.80550 20.12355 5920 ft 262 kts 296°
2026-04-24 09:30 44.81293 20.09999 6758 ft 264 kts 296°
2026-04-24 09:30 44.82032 20.07640 7493 ft 269 kts 296°
2026-04-24 09:30 44.82793 20.05203 8228 ft 273 kts 296°
2026-04-24 09:31 44.83562 20.02735 8965 ft 277 kts 296°
2026-04-24 09:31 44.84339 20.00229 9702 ft 282 kts 296°
2026-04-24 09:31 44.85132 19.97679 10388 ft 286 kts 297°
2026-04-24 09:31 44.85940 19.95082 11054 ft 289 kts 297°
2026-04-24 09:32 44.86747 19.92501 11727 ft 293 kts 297°
2026-04-24 09:32 44.87576 19.89845 12419 ft 297 kts 298°
2026-04-24 09:32 44.88411 19.87162 13095 ft 301 kts 298°
2026-04-24 09:32 44.89253 19.84449 13785 ft 304 kts 298°
2026-04-24 09:33 44.90107 19.81692 14401 ft 308 kts 298°
2026-04-24 09:33 44.90957 19.78936 14988 ft 311 kts 298°
2026-04-24 09:33 44.91823 19.76123 15610 ft 314 kts 298°
2026-04-24 09:33 44.92698 19.73281 16238 ft 317 kts 298°
2026-04-24 09:34 44.93584 19.70402 16842 ft 320 kts 298°
2026-04-24 09:34 44.94478 19.67498 17443 ft 324 kts 298°
2026-04-24 09:34 44.95382 19.64565 18039 ft 327 kts 298°
2026-04-24 09:34 44.96283 19.61638 18585 ft 330 kts 298°
2026-04-24 09:35 44.97207 19.58636 19102 ft 333 kts 298°
2026-04-24 09:35 44.98133 19.55623 19600 ft 336 kts 298°
2026-04-24 09:35 44.99068 19.52577 20100 ft 339 kts 298°
2026-04-24 09:35 45.00011 19.49496 20600 ft 342 kts 298°
2026-04-24 09:36 45.00954 19.46401 21085 ft 345 kts 298°
2026-04-24 09:36 45.01894 19.43312 21544 ft 348 kts 298°
2026-04-24 09:36 45.02858 19.40156 22025 ft 351 kts 298°
2026-04-24 09:36 45.03827 19.36970 22513 ft 354 kts 298°
2026-04-24 09:37 45.04806 19.33745 23002 ft 357 kts 298°
2026-04-24 09:37 45.05788 19.30509 23480 ft 360 kts 298°
2026-04-24 09:37 45.06443 19.28351 23772 ft 362 kts 298°
2026-04-24 09:37 45.07439 19.25064 24167 ft 364 kts 298°
2026-04-24 09:38 45.08769 19.20665 24704 ft 368 kts 298°
2026-04-24 09:38 45.09438 19.18449 24970 ft 369 kts 298°
2026-04-24 09:38 45.10450 19.15089 25360 ft 372 kts 298°
2026-04-24 09:38 45.11467 19.11713 25743 ft 374 kts 298°
2026-04-24 09:39 45.12495 19.08304 26142 ft 377 kts 298°
2026-04-24 09:39 45.13587 19.04896 26376 ft 384 kts 301°
2026-04-24 09:39 45.14818 19.01472 26508 ft 393 kts 303°
2026-04-24 09:39 45.16121 18.98072 26642 ft 403 kts 303°
2026-04-24 09:40 45.17496 18.94552 26770 ft 412 kts 303°
2026-04-24 09:40 45.18897 18.90940 26901 ft 422 kts 303°
2026-04-24 09:40 45.20308 18.87233 27034 ft 431 kts 302°
2026-04-24 09:40 45.21724 18.83438 27233 ft 437 kts 302°
2026-04-24 09:41 45.23119 18.79635 27540 ft 441 kts 301°
2026-04-24 09:41 45.24534 18.75739 27871 ft 444 kts 301°
2026-04-24 09:41 45.25937 18.71864 28211 ft 446 kts 301°
2026-04-24 09:41 45.27363 18.67939 28564 ft 449 kts 301°
2026-04-24 09:42 45.28804 18.63995 28897 ft 451 kts 302°
2026-04-24 09:42 45.30262 18.60018 29245 ft 453 kts 302°
2026-04-24 09:42 45.31733 18.56009 29378 ft 460 kts 301°
2026-04-24 09:42 45.33222 18.51947 29533 ft 466 kts 301°
2026-04-24 09:43 45.34730 18.47821 29658 ft 473 kts 301°
2026-04-24 09:43 45.36229 18.43698 29794 ft 478 kts 301°
2026-04-24 09:43 45.37766 18.39459 29952 ft 482 kts 301°
2026-04-24 09:43 45.39311 18.35185 30188 ft 484 kts 301°
2026-04-24 09:44 45.40834 18.30961 30449 ft 484 kts 301°
2026-04-24 09:44 45.42379 18.26671 30752 ft 484 kts 301°
2026-04-24 09:44 45.43919 18.22398 31036 ft 483 kts 301°
2026-04-24 09:44 45.45436 18.18189 31318 ft 483 kts 301°
2026-04-24 09:45 45.46971 18.13926 31578 ft 483 kts 301°
2026-04-24 09:45 45.48506 18.09656 31838 ft 483 kts 301°
2026-04-24 09:45 45.50028 18.05418 32115 ft 483 kts 301°
2026-04-24 09:45 45.51561 18.01143 32404 ft 483 kts 301°
2026-04-24 09:46 45.53088 17.96871 32690 ft 482 kts 301°
2026-04-24 09:46 45.54615 17.92595 32978 ft 482 kts 301°
2026-04-24 09:46 45.56132 17.88339 33284 ft 481 kts 302°
2026-04-24 09:46 45.57626 17.84139 33587 ft 480 kts 302°
2026-04-24 09:47 45.59137 17.79878 33841 ft 480 kts 302°
2026-04-24 09:47 45.60646 17.75616 34110 ft 479 kts 302°
2026-04-24 09:47 45.62153 17.71360 34342 ft 479 kts 302°
2026-04-24 09:47 45.63642 17.67151 34571 ft 478 kts 302°
2026-04-24 09:48 45.65143 17.62903 34811 ft 477 kts 302°
2026-04-24 09:48 45.66640 17.58656 35065 ft 476 kts 302°
2026-04-24 09:48 45.68130 17.54417 35315 ft 475 kts 302°
2026-04-24 09:48 45.69618 17.50182 35569 ft 474 kts 302°
2026-04-24 09:49 45.71096 17.45973 35807 ft 473 kts 302°
2026-04-24 09:49 45.72553 17.41812 36043 ft 472 kts 302°
2026-04-24 09:49 45.75492 17.33373 36150 ft 472 kts 302°
2026-04-24 09:50 45.78410 17.24995 36150 ft 471 kts 302°
2026-04-24 09:50 45.81335 17.16574 36146 ft 471 kts 302°
2026-04-24 09:51 45.84238 17.08203 36146 ft 470 kts 302°
2026-04-24 09:51 45.87149 16.99770 36152 ft 471 kts 302°
2026-04-24 09:52 45.90049 16.91330 36158 ft 471 kts 301°
2026-04-24 09:52 45.92930 16.82909 36162 ft 472 kts 301°
2026-04-24 09:53 45.95828 16.74425 36155 ft 471 kts 301°
2026-04-24 09:53 45.98709 16.65969 36172 ft 471 kts 301°
2026-04-24 09:54 46.01575 16.57538 36172 ft 471 kts 301°
2026-04-24 09:54 46.04452 16.49039 36170 ft 471 kts 301°
2026-04-24 09:55 46.07311 16.40572 36169 ft 471 kts 301°
2026-04-24 09:55 46.10171 16.32065 36173 ft 470 kts 301°
2026-04-24 09:56 46.12999 16.23611 36175 ft 470 kts 301°
2026-04-24 09:56 46.15835 16.15106 36168 ft 470 kts 301°
2026-04-24 09:57 46.18678 16.06593 36151 ft 470 kts 301°
2026-04-24 09:57 46.21491 15.98127 36160 ft 470 kts 301°
2026-04-24 09:58 46.24186 15.89970 36163 ft 470 kts 301°
2026-04-24 09:58 46.27007 15.81408 36161 ft 469 kts 301°
2026-04-24 09:59 46.29925 15.73042 36158 ft 468 kts 303°
2026-04-24 09:59 46.32960 15.64735 36160 ft 467 kts 303°
2026-04-24 10:00 46.35972 15.56413 36159 ft 467 kts 303°
2026-04-24 10:00 46.38950 15.47993 36160 ft 468 kts 302°
2026-04-24 10:01 46.41874 15.39632 36142 ft 467 kts 302°
2026-04-24 10:01 46.44819 15.31228 36150 ft 468 kts 302°
2026-04-24 10:02 46.47795 15.22771 36145 ft 468 kts 302°
2026-04-24 10:02 46.50722 15.14401 36139 ft 468 kts 302°
2026-04-24 10:03 46.53666 15.05935 36125 ft 468 kts 302°
2026-04-24 10:03 46.56583 14.97529 36131 ft 468 kts 302°
2026-04-24 10:04 46.59524 14.89050 36125 ft 468 kts 302°
2026-04-24 10:04 46.62457 14.80578 36142 ft 469 kts 302°
2026-04-24 10:05 46.65359 14.72124 36122 ft 468 kts 301°
2026-04-24 10:05 46.68276 14.63602 36143 ft 468 kts 301°
2026-04-24 10:06 46.72626 14.50891 36157 ft 468 kts 301°
2026-04-24 10:07 46.75504 14.42401 36154 ft 468 kts 301°
2026-04-24 10:07 46.78385 14.33866 36153 ft 468 kts 301°
2026-04-24 10:08 46.81258 14.25354 36159 ft 468 kts 301°
2026-04-24 10:08 46.84155 14.16779 36160 ft 469 kts 301°
2026-04-24 10:09 46.87025 14.08266 36155 ft 468 kts 301°
2026-04-24 10:09 46.89873 13.99745 36138 ft 469 kts 300°
2026-04-24 10:10 46.92737 13.91140 36152 ft 469 kts 300°
2026-04-24 10:10 46.95590 13.82547 36155 ft 469 kts 300°
2026-04-24 10:11 46.98423 13.74001 36164 ft 468 kts 300°
2026-04-24 10:11 47.01278 13.65394 36169 ft 468 kts 300°
2026-04-24 10:12 47.04103 13.56815 36158 ft 468 kts 300°
2026-04-24 10:12 47.06927 13.48204 36168 ft 468 kts 300°
2026-04-24 10:13 47.09736 13.39622 36173 ft 469 kts 300°
2026-04-24 10:13 47.12548 13.30964 36183 ft 469 kts 300°
2026-04-24 10:14 47.15348 13.22306 36172 ft 469 kts 299°
2026-04-24 10:14 47.18148 13.13655 36175 ft 469 kts 299°
2026-04-24 10:15 47.20934 13.05014 36181 ft 469 kts 299°
2026-04-24 10:15 47.23613 12.96679 36198 ft 469 kts 299°
2026-04-24 10:16 47.26399 12.87977 36188 ft 469 kts 299°
2026-04-24 10:16 47.29168 12.79309 36203 ft 469 kts 299°
2026-04-24 10:17 47.31942 12.70603 36212 ft 467 kts 299°
2026-04-24 10:17 47.34689 12.61953 36224 ft 467 kts 298°
2026-04-24 10:18 47.37432 12.53265 36230 ft 467 kts 298°
2026-04-24 10:18 47.40168 12.44560 36214 ft 466 kts 298°
2026-04-24 10:19 47.42896 12.35861 36222 ft 467 kts 298°
2026-04-24 10:19 47.45613 12.27180 36221 ft 467 kts 298°
2026-04-24 10:20 47.48325 12.18496 36114 ft 468 kts 298°
2026-04-24 10:20 47.49705 12.14059 35070 ft 476 kts 298°
2026-04-24 10:20 47.51082 12.09611 34659 ft 469 kts 298°
2026-04-24 10:20 47.52417 12.05276 34487 ft 458 kts 298°
2026-04-24 10:21 47.53628 12.01013 34142 ft 455 kts 292°
2026-04-24 10:21 47.54404 11.96477 33660 ft 454 kts 285°
2026-04-24 10:21 47.55039 11.91906 33187 ft 449 kts 285°
2026-04-24 10:21 47.55670 11.87371 32673 ft 446 kts 285°
2026-04-24 10:22 47.56299 11.82888 32171 ft 443 kts 285°
2026-04-24 10:22 47.56919 11.78468 31706 ft 440 kts 286°
2026-04-24 10:22 47.57539 11.74040 31237 ft 436 kts 285°
2026-04-24 10:22 47.58149 11.69646 30771 ft 433 kts 285°
2026-04-24 10:23 47.58744 11.65346 30304 ft 430 kts 285°
2026-04-24 10:23 47.59342 11.61006 29788 ft 426 kts 285°
2026-04-24 10:23 47.59931 11.56721 29287 ft 423 kts 285°
2026-04-24 10:23 47.60515 11.52470 28734 ft 418 kts 285°
2026-04-24 10:24 47.61092 11.48242 28209 ft 416 kts 285°
2026-04-24 10:24 47.61661 11.44045 27728 ft 413 kts 285°
2026-04-24 10:24 47.62226 11.39881 27261 ft 410 kts 285°
2026-04-24 10:24 47.62765 11.35783 26817 ft 408 kts 284°
2026-04-24 10:25 47.63277 11.31661 26400 ft 405 kts 284°
2026-04-24 10:25 47.63774 11.27547 25982 ft 403 kts 284°
2026-04-24 10:25 47.64098 11.24830 25713 ft 402 kts 284°
2026-04-24 10:25 47.64581 11.20753 25311 ft 399 kts 284°
2026-04-24 10:26 47.65064 11.16701 24911 ft 397 kts 284°
2026-04-24 10:26 47.65543 11.12674 24499 ft 395 kts 284°
2026-04-24 10:26 47.66020 11.08670 24098 ft 393 kts 284°
2026-04-24 10:26 47.66487 11.04725 23703 ft 391 kts 284°
2026-04-24 10:27 47.66959 11.00753 23212 ft 387 kts 284°
2026-04-24 10:27 47.67420 10.96864 22287 ft 380 kts 283°
2026-04-24 10:27 47.67874 10.93026 21336 ft 374 kts 283°
2026-04-24 10:27 47.68315 10.89300 20433 ft 368 kts 283°
2026-04-24 10:28 47.68755 10.85582 19549 ft 363 kts 282°
2026-04-24 10:28 47.69187 10.81916 18683 ft 357 kts 282°
2026-04-24 10:28 47.69611 10.78306 17743 ft 352 kts 282°
2026-04-24 10:28 47.70026 10.74758 16873 ft 345 kts 282°
2026-04-24 10:29 47.70432 10.71244 16485 ft 345 kts 282°
2026-04-24 10:29 47.70837 10.67739 16069 ft 344 kts 282°
2026-04-24 10:29 47.71235 10.64281 15660 ft 342 kts 282°
2026-04-24 10:29 47.71633 10.60797 15248 ft 340 kts 282°
2026-04-24 10:30 47.72024 10.57378 14836 ft 337 kts 282°
2026-04-24 10:30 47.72419 10.53953 14428 ft 335 kts 282°
2026-04-24 10:30 47.72812 10.50545 14029 ft 333 kts 282°
2026-04-24 10:30 47.73201 10.47168 13596 ft 331 kts 282°
2026-04-24 10:31 47.73583 10.43827 13191 ft 330 kts 282°
2026-04-24 10:31 47.73961 10.40483 12792 ft 326 kts 282°
2026-04-24 10:31 47.74336 10.37176 12400 ft 323 kts 282°
2026-04-24 10:31 47.74693 10.33887 12005 ft 320 kts 280°
2026-04-24 10:32 47.74958 10.30651 11629 ft 318 kts 278°
2026-04-24 10:32 47.75169 10.27373 11243 ft 317 kts 277°
2026-04-24 10:32 47.75355 10.24113 10861 ft 314 kts 276°
2026-04-24 10:32 47.75538 10.20886 10486 ft 312 kts 277°
2026-04-24 10:33 47.75724 10.17685 10278 ft 307 kts 277°
2026-04-24 10:33 47.75915 10.14538 10160 ft 310 kts 277°
2026-04-24 10:33 47.76116 10.11312 9590 ft 313 kts 277°
2026-04-24 10:33 47.76311 10.08220 9348 ft 289 kts 277°
2026-04-24 10:34 47.76496 10.05328 8759 ft 279 kts 277°
2026-04-24 10:34 47.76681 10.02468 8089 ft 275 kts 277°
2026-04-24 10:34 47.76864 9.99633 7571 ft 274 kts 276°
2026-04-24 10:34 47.77044 9.96842 7095 ft 273 kts 276°
2026-04-24 10:35 47.77224 9.94024 6625 ft 272 kts 275°
2026-04-24 10:35 47.77400 9.91245 6132 ft 267 kts 275°
2026-04-24 10:35 47.77565 9.88588 5966 ft 245 kts 275°
2026-04-24 10:35 47.77719 9.86112 5911 ft 239 kts 275°
2026-04-24 10:36 47.77871 9.83656 5835 ft 239 kts 276°
2026-04-24 10:36 47.78011 9.81230 5698 ft 240 kts 272°
2026-04-24 10:36 47.77745 9.78838 5440 ft 231 kts 249°
2026-04-24 10:36 47.77001 9.76702 5088 ft 231 kts 240°
2026-04-24 10:37 47.76202 9.74649 4784 ft 228 kts 240°
2026-04-24 10:37 47.75426 9.72640 4509 ft 219 kts 240°
2026-04-24 10:37 47.74699 9.70750 4207 ft 203 kts 240°
2026-04-24 10:37 47.74029 9.69012 3964 ft 180 kts 240°
2026-04-24 10:38 47.73442 9.67487 3719 ft 163 kts 240°
2026-04-24 10:38 47.72895 9.66066 3504 ft 156 kts 240°
2026-04-24 10:38 47.72362 9.64683 3299 ft 153 kts 240°
2026-04-24 10:38 47.71834 9.63313 3090 ft 152 kts 240°
2026-04-24 10:39 47.71306 9.61947 2897 ft 152 kts 240°
2026-04-24 10:39 47.70779 9.60582 2708 ft 153 kts 240°
2026-04-24 10:39 47.70253 9.59220 2490 ft 151 kts 240°
2026-04-24 10:39 47.69736 9.57880 2283 ft 149 kts 240°
2026-04-24 10:40 47.69226 9.56562 2086 ft 145 kts 239°
2026-04-24 10:40 47.68730 9.55280 1878 ft 141 kts 239°
2026-04-24 10:40 47.68241 9.54022 1686 ft 140 kts 240°
2026-04-24 10:40 47.67762 9.52772 1464 ft 137 kts 239°
2026-04-24 10:41 47.67306 9.51596 1360 ft 114 kts 240°
2026-04-24 10:41 47.67040 9.50909 1355 ft 35 kts 239°
2026-04-24 10:41 47.66905 9.50689 1352 ft 27 kts 207°
2026-04-24 10:41 47.66798 9.50608 1353 ft 12 kts 179°
2026-04-24 10:42 47.66772 9.50703 1352 ft 13 kts 68°
2026-04-24 10:42 47.66828 9.50827 1351 ft 16 kts 54°
2026-04-24 10:42 47.66879 9.50966 1352 ft 15 kts 63°
2026-04-24 10:42 47.66929 9.51105 1357 ft 15 kts 60°
2026-04-24 10:43 47.66981 9.51241 1359 ft 15 kts 60°
2026-04-24 10:43 47.67031 9.51369 1360 ft 14 kts 60°
2026-04-24 10:43 47.67082 9.51499 1361 ft 15 kts 59°
2026-04-24 10:43 47.67132 9.51626 1364 ft 15 kts 60°
2026-04-24 10:44 47.67185 9.51764 1364 ft 16 kts 60°
2026-04-24 10:44 47.67240 9.51905 1366 ft 15 kts 60°
2026-04-24 10:44 47.67276 9.52007 1365 ft 6 kts 73°
2026-04-24 10:44 47.67257 9.52063 1367 ft 5 kts 158°
2026-04-24 10:45 47.67250 9.52061 1367 ft 0 kts 188°